{"data":{"norad_id":61221,"epoch":"2026-05-24T19:45:28.015488Z","epoch_age_seconds":90986,"freshness":"FRESH","line1":"1 61221U 24172B   26144.82324092  .00001574  00000+0  25694-3 0  9990","line2":"2 61221  98.0424 234.9798 0001361 156.4939 203.6331 14.72294155 89916","mean_motion":14.72294155,"eccentricity":0.0001361,"inclination_deg":98.0424,"raan_deg":234.9798,"arg_perigee_deg":156.4939,"mean_anomaly_deg":203.6331,"bstar":0.00025694,"rev_number":8991,"period_min":97.806541927078,"perigee_km":652.79673015484,"apogee_km":654.71081082256,"semimajor_km":7031.8907704887,"source":"CELESTRAK","updated_at":"2026-05-25T13:38:02.342141Z"}}